Powrót do katalogu

COSMOS 1290

AktywnyNawigacjaLEO
NORAD 12639·PAYLOAD·🇷🇺 Russia

Wystrzelony Aug 6, 1981 z Plesetsk Cosmodrome

Loading…

Następne Przeloty (najbliższe 24 godziny)

TLE

ŚwieżeSource: Space-Track

Epoka: Sep 14, 2026, 07:52 UTC

1 12639U 81074D   26257.32780419 -.00000011  00000-0  29133-4 0  9992
2 12639  74.0303 101.3287 0014680  43.0595 129.7413 12.52836424 62829

Śledź COSMOS 1290 w czasie rzeczywistym z AllMySat

Download on the App Store